Change the Weather History Date:

Monday, February 25, 2013

  Actual Average (KAPA) Record (KAPA)
Temperature  
Mean Temperature 19 °F -  
Max Temperature 32 °F 41 °F 64 °F (1999)
Min Temperature 6 °F 20 °F 1 °F (2002)
Degree Days  
Heating Degree Days 46    
Moisture  
Dew Point 9 °F    
Average Humidity 71    
Maximum Humidity 100    
Minimum Humidity 32    
Precipitation  
Precipitation 0.00 in - - ()
Sea Level Pressure  
Sea Level Pressure 29.89 in    
Wind  
Wind Speed 7 mph (West)    
Max Wind Speed 14 mph    
Max Gust Speed -    
Visibility 8 miles    
Events Fog , Snow    
Averages and records for this station are not official NWS values.
T = Trace of Precipitation, MM = Missing Value Source: NWS Daily Summary

Daily Weather History Graph

Daily Weather History Graph

Search for Another Location

Airport or City:

Trip Planner

Search our weather history database for the weather conditions in past years. The results will help you decide how hot, cold, wet, or windy it might be!

Date:

Astronomy

Feb. 25, 2013 Rise Set
Actual Time 6:36 AM MST 5:47 PM MST
Civil Twilight 6:09 AM MST 6:14 PM MST
Nautical Twilight 5:38 AM MST 6:45 PM MST
Astronomical Twilight 5:07 AM MST 7:16 PM MST
Moon 6:02 PM MST (2/25) 6:08 AM MST (2/25)
Length of Visible Light 12h 04m
Length of Day
11h 10m
Full, 100% of the Moon is Illuminated
Feb 25
Full
Feb 25
Full
Mar 4
Last Quarter
Mar 11
New
Mar 19
First Quarter

Hourly Weather History & Observations

Time (MST) Temp. Windchill Dew Point Humidity Pressure Visibility Wind Dir Wind Speed Gust Speed Precip Events Conditions
12:11 AM 17.6 °F 3.7 °F 15.8 °F 93% 29.98 in 4.0 mi North 13.8 mph - N/A Snow Light Snow
12:30 AM 17.6 °F 3.7 °F 14.0 °F 86% 29.99 in 7.0 mi North 13.8 mph - N/A   Overcast
12:54 AM 17.6 °F 5.0 °F 14.0 °F 86% 29.97 in 7.0 mi NNW 11.5 mph - N/A   Overcast
1:12 AM 17.6 °F 5.0 °F 14.0 °F 86% 29.98 in 10.0 mi NNW 11.5 mph - N/A   Overcast
1:34 AM 17.6 °F 5.0 °F 14.0 °F 86% 29.97 in 7.0 mi NNW 11.5 mph - N/A   Overcast
1:54 AM 15.8 °F 2.1 °F 14.0 °F 93% 29.96 in 10.0 mi NNW 12.7 mph - N/A   Overcast
2:14 AM 14.0 °F 2.0 °F 14.0 °F 100% 29.96 in 10.0 mi NNW 9.2 mph - N/A   Overcast
2:32 AM 14.0 °F 2.0 °F 12.2 °F 93% 29.97 in 10.0 mi NNW 9.2 mph - N/A   Overcast
2:54 AM 15.8 °F 3.4 °F 14.0 °F 93% 29.95 in 10.0 mi NNW 10.4 mph - N/A   Overcast
3:14 AM 15.8 °F 3.4 °F 14.0 °F 93% 29.96 in 5.0 mi NNW 10.4 mph - N/A   Overcast
3:33 AM 14.0 °F 2.0 °F 12.2 °F 93% 29.95 in 4.0 mi NW 9.2 mph - N/A   Mostly Cloudy
3:49 AM 12.2 °F 1.7 °F 10.4 °F 92% 29.95 in 2.0 mi NNW 6.9 mph - N/A   Mostly Cloudy
4:14 AM 10.4 °F -1.5 °F 8.6 °F 92% 29.95 in 0.2 mi NNW 8.1 mph - N/A Fog Light Freezing Fog
4:30 AM 10.4 °F -3.3 °F 8.6 °F 92% 29.95 in 0.5 mi NW 10.4 mph - N/A Fog Light Freezing Fog
4:54 AM 12.2 °F 2.9 °F 10.4 °F 92% 29.94 in 0.8 mi NNW 5.8 mph - N/A   Overcast
5:14 AM 10.4 °F -2.4 °F 8.6 °F 92% 29.92 in 0.2 mi NW 9.2 mph - N/A Snow Light Snow
5:34 AM 10.4 °F 0.8 °F 8.6 °F 92% 29.93 in 0.2 mi NW 5.8 mph - N/A Fog Light Freezing Fog
5:54 AM 8.6 °F -1.3 °F 6.8 °F 92% 29.93 in 0.2 mi WNW 5.8 mph - N/A Snow Light Snow
6:14 AM 6.8 °F -4.8 °F 3.2 °F 85% 29.93 in 2.0 mi NW 6.9 mph - N/A   Mostly Cloudy
6:32 AM 10.4 °F -2.4 °F 8.6 °F 92% 29.93 in 7.0 mi NW 9.2 mph - N/A   Scattered Clouds
6:49 AM 12.2 °F 1.7 °F 10.4 °F 92% 29.93 in 0.2 mi NW 6.9 mph - N/A Fog Light Freezing Fog
7:09 AM 12.2 °F 6.1 °F 10.4 °F 92% 29.94 in 0.2 mi NNW 3.5 mph - N/A Fog Light Freezing Fog
7:30 AM 12.2 °F - 10.4 °F 92% 29.94 in 0.2 mi Calm Calm - N/A Snow Light Snow
7:54 AM 12.2 °F - 10.4 °F 92% 29.95 in 0.2 mi Calm Calm - N/A Fog Light Freezing Fog
8:11 AM 14.0 °F - 14.0 °F 100% 29.95 in 1.5 mi Calm Calm - N/A   Scattered Clouds
8:31 AM 17.6 °F - 17.6 °F 100% 29.95 in 5.0 mi Calm Calm - N/A   Clear
8:54 AM 19.4 °F - 19.4 °F 100% 29.95 in 10.0 mi Calm Calm - N/A   Clear
9:14 AM 23.0 °F - 19.4 °F 86% 29.96 in 10.0 mi Calm Calm - N/A   Clear
9:32 AM 23.0 °F - 19.4 °F 86% 29.96 in 10.0 mi Calm Calm - N/A   Clear
9:54 AM 24.8 °F - 19.4 °F 80% 29.97 in 10.0 mi Calm Calm - N/A   Clear
10:09 AM 23.0 °F - 15.8 °F 74% 29.96 in 10.0 mi Calm Calm - N/A   Clear
10:29 AM 21.2 °F - 12.2 °F 68% 29.95 in 10.0 mi Calm Calm - N/A   Clear
10:53 AM 23.0 °F - 10.4 °F 59% 29.95 in 10.0 mi Calm Calm - N/A   Clear
11:14 AM 23.0 °F 18.4 °F 10.4 °F 59% 29.95 in 10.0 mi South 3.5 mph - N/A   Clear
11:34 AM 26.6 °F 22.6 °F 12.2 °F 55% 29.94 in 10.0 mi SW 3.5 mph - N/A   Clear
11:49 AM 26.6 °F - 12.2 °F 55% 29.93 in 10.0 mi Calm Calm - N/A   Clear
12:09 PM 28.4 °F - 12.2 °F 51% 29.92 in 10.0 mi Calm Calm - N/A   Clear
12:30 PM 30.2 °F - 10.4 °F 44% 29.91 in 10.0 mi Calm Calm - N/A   Clear
12:54 PM 30.2 °F 25.4 °F 12.2 °F 47% 29.90 in 10.0 mi West 4.6 mph - N/A   Clear
1:14 PM 30.2 °F 26.7 °F 10.4 °F 44% 29.88 in 10.0 mi West 3.5 mph - N/A   Clear
1:30 PM 30.2 °F - 10.4 °F 44% 29.87 in 10.0 mi Calm Calm - N/A   Clear
1:54 PM 32.0 °F - 5.0 °F 32% 29.87 in 10.0 mi Calm Calm - N/A   Clear
2:14 PM 30.2 °F - 5.0 °F 34% 29.86 in 10.0 mi Calm Calm - N/A   Clear
2:34 PM 32.0 °F - 5.0 °F 32% 29.86 in 10.0 mi Calm Calm - N/A   Clear
2:54 PM 32.0 °F - 6.8 °F 35% 29.86 in 10.0 mi Calm Calm - N/A   Clear
3:14 PM 30.2 °F 26.7 °F 5.0 °F 34% 29.86 in 10.0 mi NNE 3.5 mph - N/A   Clear
3:34 PM 30.2 °F 26.7 °F 5.0 °F 34% 29.85 in 10.0 mi NNE 3.5 mph - N/A   Clear
3:54 PM 28.4 °F 23.3 °F 5.0 °F 37% 29.85 in 10.0 mi NNE 4.6 mph - N/A   Clear
4:14 PM 26.6 °F 22.6 °F 8.6 °F 47% 29.85 in 10.0 mi ESE 3.5 mph - N/A   Clear
4:33 PM 24.8 °F 19.1 °F 8.6 °F 50% 29.84 in 10.0 mi ESE 4.6 mph - N/A   Clear
4:54 PM 23.0 °F 17.0 °F 6.8 °F 50% 29.84 in 10.0 mi ESE 4.6 mph - N/A   Clear
5:14 PM 23.0 °F 18.4 °F 3.2 °F 43% 29.84 in 10.0 mi SE 3.5 mph - N/A   Clear
5:30 PM 19.4 °F 14.3 °F 6.8 °F 58% 29.84 in 10.0 mi South 3.5 mph - N/A   Clear
5:54 PM 19.4 °F - 3.2 °F 49% 29.84 in 10.0 mi Calm Calm - N/A   Clear
6:14 PM 14.0 °F 6.5 °F 3.2 °F 62% 29.83 in 10.0 mi ESE 4.6 mph - N/A   Clear
6:34 PM 15.8 °F 6.1 °F 3.2 °F 58% 29.83 in 10.0 mi SE 6.9 mph - N/A   Clear
7:13 PM 12.2 °F 1.7 °F 3.2 °F 67% 29.83 in 10.0 mi SSE 6.9 mph - N/A   Clear
7:34 PM 14.0 °F 3.9 °F 3.2 °F 62% 29.82 in 10.0 mi South 6.9 mph - N/A   Clear
7:54 PM 10.4 °F -1.5 °F 1.4 °F 67% 29.82 in 10.0 mi South 8.1 mph - N/A   Clear
8:14 PM 12.2 °F -0.2 °F 1.4 °F 62% 29.82 in 10.0 mi SSE 9.2 mph - N/A   Clear
8:34 PM 10.4 °F -2.4 °F 1.4 °F 67% 29.82 in 10.0 mi South 9.2 mph - N/A   Clear
8:54 PM 10.4 °F -3.3 °F 3.2 °F 73% 29.82 in 10.0 mi South 10.4 mph - N/A   Clear
9:14 PM 12.2 °F -0.2 °F 5.0 °F 73% 29.82 in 10.0 mi South 9.2 mph - N/A   Clear
9:34 PM 10.4 °F -3.3 °F 3.2 °F 73% 29.81 in 10.0 mi South 10.4 mph - N/A   Clear
9:53 PM 15.8 °F 2.1 °F 8.6 °F 73% 29.80 in 10.0 mi South 12.7 mph - N/A   Clear
10:13 PM 15.8 °F 3.4 °F 6.8 °F 68% 29.79 in 10.0 mi SSW 10.4 mph - N/A   Clear
10:34 PM 14.0 °F 2.0 °F 6.8 °F 73% 29.79 in 10.0 mi SSW 9.2 mph - N/A   Clear
10:52 PM 12.2 °F -1.0 °F 5.0 °F 73% 29.78 in 10.0 mi South 10.4 mph - N/A   Clear
11:14 PM 12.2 °F -0.2 °F 5.0 °F 73% 29.77 in 10.0 mi SSW 9.2 mph - N/A   Clear
11:29 PM 12.2 °F -1.0 °F 5.0 °F 73% 29.77 in 10.0 mi SSW 10.4 mph - N/A   Clear
11:53 PM 14.0 °F 2.0 °F 5.0 °F 67% 29.76 in 10.0 mi SSW 9.2 mph - N/A   Clear